Home   Weather   Firenze   Past weeks

Flag for Italy Past Weather in Firenze, Italy — Yesterday and Last 2 Weeks

63 °F

Passing clouds.

Feels Like: 63 °F
Forecast: 47 / 64 °F
Wind: 7 mph from Northeast

Location: Florence / Peretola

Current Time: Oct 21, 2016 at 6:45:24 PM

Latest Report: Oct 21, 2016 at 5:50 PM

Visibility: N/A

Pressure: 29.86 "Hg

Humidity: 56%

Dew Point: 46 °F

Location of FirenzeLocation

Past Weather in Firenze — Graph


Firenze Temperature Yesterday

Maximum temperature yesterday: 63 °F (at 1:20 PM)
Minimum temperature yesterday: 55 °F (at 5:20 AM)
Average temperature yesterday: 59 °F

High & Low Weather Summary for the Past Weeks

High73 °F (Oct 15, 2:50 PM)100% (Oct 14, 7:50 PM)30.24 "Hg (Oct 14, 7:50 PM)
Low39 °F (Oct 12, 7:20 AM)30% (Oct 12, 2:50 PM)29.74 "Hg (Oct 14, 1:50 PM)
Average59 °F76%29.99 "Hg
* Reported Oct 6 5:20 PM — Oct 21 5:20 PM, Firenze, Weather by CustomWeather, © 2016

Note: Actual official high and low records may vary slightly from our data, if they occured in-between our weather recording intervals... More about our weather records


Firenze Weather History for the Previous 24 Hours

Scroll right to see more
Time TempWeatherWind HumidityBarometerVisibility
5:20 PM
Fri, Oct 21
64 °FPassing clouds.5 mph56%29.83 "HgN/A
4:50 PM66 °FPassing clouds.5 mph46%29.83 "HgN/A
4:20 PM66 °FPassing clouds.3 mph49%29.83 "HgN/A
3:50 PM66 °FPassing clouds.2 mph49%29.83 "HgN/A
3:20 PM68 °FPassing clouds.1 mph49%29.83 "HgN/A
2:50 PM66 °FPassing clouds.5 mph49%29.83 "HgN/A
2:20 PM66 °FPassing clouds.5 mph49%29.86 "HgN/A
1:50 PM64 °FPassing clouds.6 mph56%29.86 "HgN/A
1:20 PM66 °FPassing clouds.2 mph49%29.86 "HgN/A
12:50 PM63 °FPassing clouds.3 mph59%29.86 "HgN/A
12:20 PM63 °FPassing clouds.3 mph59%29.89 "HgN/A
11:50 AM63 °FScattered clouds.2 mph64%29.89 "HgN/A
11:20 AM59 °FPartly sunny.3 mph68%29.89 "HgN/A
10:50 AM59 °FScattered clouds.3 mph72%29.86 "HgN/A
10:20 AM59 °FPassing clouds.2 mph77%29.86 "HgN/A
9:50 AM59 °FPassing clouds.2 mph77%29.86 "HgN/A
9:20 AM55 °FScattered clouds.2 mph88%29.86 "HgN/A
8:50 AM55 °FScattered clouds.3 mph88%29.86 "HgN/A
8:20 AM54 °FScattered clouds.3 mph94%29.86 "HgN/A
7:50 AM54 °FPartly sunny.2 mph94%29.86 "HgN/A
7:20 AM54 °FPassing clouds.2 mph94%29.83 "HgN/A
6:50 AM54 °FPassing clouds.3 mph94%29.86 "HgN/A
6:20 AM54 °FPassing clouds.3 mph94%29.83 "HgN/A
5:50 AM54 °FPassing clouds.5 mph94%29.83 "HgN/A
5:20 AM54 °FRain. Passing clouds.3 mph94%29.83 "Hg5 mi
4:50 AM55 °FRain. Passing clouds.5 mph88%29.83 "Hg5 mi
4:20 AM55 °FPassing clouds.3 mph88%29.83 "HgN/A
3:50 AM55 °FPassing clouds.No wind88%29.83 "HgN/A
3:20 AM55 °FPassing clouds.1 mph88%29.86 "HgN/A
2:50 AM54 °FPassing clouds.2 mph94%29.86 "HgN/A
2:20 AM54 °FPassing clouds.1 mph94%29.86 "HgN/A
1:50 AM55 °FPassing clouds.No wind88%29.86 "HgN/A
1:20 AM55 °FPassing clouds.2 mph88%29.86 "HgN/A
12:50 AM55 °FPassing clouds.1 mph94%29.86 "HgN/A
12:20 AM55 °FPassing clouds.1 mph94%29.86 "HgN/A
11:50 PM
Thu, Oct 20
57 °FPassing clouds.No wind88%29.86 "HgN/A
11:20 PM55 °FPassing clouds.3 mph94%29.86 "HgN/A
10:50 PM55 °FPassing clouds.No wind94%29.86 "HgN/A
10:20 PM57 °FPassing clouds.No wind88%29.86 "HgN/A
9:50 PM57 °FPassing clouds.3 mph88%29.86 "HgN/A
9:20 PM57 °FPassing clouds.2 mph88%29.86 "HgN/A
8:50 PM57 °FPassing clouds.1 mph88%29.86 "HgN/A
8:20 PM57 °FPassing clouds.No wind88%29.86 "HgN/A
7:50 PM57 °FPassing clouds.2 mph88%29.86 "HgN/A
7:20 PM57 °FPassing clouds.2 mph88%29.86 "HgN/A
6:50 PM59 °FPassing clouds.3 mph77%29.86 "HgN/A
6:20 PM59 °FPassing clouds.3 mph77%29.86 "HgN/A
Weather by CustomWeather, © 2016

See weather overviewHow to use our weather pages